Zanesville, OH

11:19 PM EDT on June 26, 2017 (GMT -0400)
Zanesville Municipal

Weather History for KZZV - April, 2013

Change the Weather History Date:

Monday, April 8, 2013

  Actual Average Record
Temperature  
Mean Temperature 61 °F 49 °F  
Max Temperature 75 °F 61 °F 80 °F (1959)
Min Temperature 46 °F 37 °F 20 °F (1972)
Degree Days  
Heating Degree Days 4 16  
Month to date heating degree days 167 139  
Since 1 July heating degree days 5184 5083  
Cooling Degree Days 0 0  
Month to date cooling degree days 0 0  
Year to date cooling degree days 0 1  
Growing Degree Days 10 (Base 50)    
Moisture  
Dew Point 45 °F    
Average Humidity 60    
Maximum Humidity 86    
Minimum Humidity 33    
Precipitation  
Precipitation T in 0.12 in 1.08 in (1983)
Month to date precipitation T 0.91  
Year to date precipitation 6.66 8.74  
Sea Level Pressure  
Sea Level Pressure 29.95 in    
Wind  
Wind Speed 7 mph (SSW)    
Max Wind Speed 22 mph    
Max Gust Speed 31 mph    
Visibility 10 miles    
Events      
T = Trace of Precipitation, MM = Missing Value Source: NWS Daily Summary

Daily Weather History Graph

Daily Weather History Graph

Search for Another Location

Airport or City:

Trip Planner

Search our weather history database for the weather conditions in past years. The results will help you decide how hot, cold, wet, or windy it might be!

Date:

Astronomy

Apr. 08, 2013 Rise Set
Actual Time 7:00 AM EDT 7:59 PM EDT
Civil Twilight 6:32 AM EDT 8:26 PM EDT
Nautical Twilight 5:59 AM EDT 8:59 PM EDT
Astronomical Twilight 5:25 AM EDT 9:33 PM EDT
Moon 5:49 AM EDT (4/8) 6:32 PM EDT (4/8)
Length of Visible Light 13h 54m
Length of Day
12h 59m
Waning Crescent, 3% of the Moon is Illuminated
Apr 8
Waning Crescent
Apr 10
New
Apr 18
First Quarter
Apr 25
Full
May 2
Last Quarter

Hourly Weather History & Observations

Time (EDT) Temp. Dew Point Humidity Pressure Visibility Wind Dir Wind Speed Gust Speed Precip Events Conditions
12:53 AM 54.0 °F 44.1 °F 69% 29.99 in 10.0 mi Calm Calm - N/A   Mostly Cloudy
1:53 AM 52.0 °F 45.0 °F 77% 30.00 in 10.0 mi NNE 3.5 mph - 0.00 in   Overcast
2:53 AM 53.1 °F 43.0 °F 69% 29.99 in 10.0 mi Calm Calm - N/A   Partly Cloudy
3:53 AM 52.0 °F 42.1 °F 69% 29.99 in 10.0 mi Calm Calm - N/A   Overcast
4:53 AM 50.0 °F 42.1 °F 74% 29.99 in 10.0 mi South 3.5 mph - N/A   Partly Cloudy
5:53 AM 46.9 °F 42.1 °F 83% 29.98 in 10.0 mi ESE 6.9 mph - N/A   Partly Cloudy
6:53 AM 46.0 °F 41.0 °F 83% 29.99 in 10.0 mi Calm Calm - N/A   Clear
7:53 AM 48.9 °F 43.0 °F 80% 30.01 in 10.0 mi Calm Calm - N/A   Clear
8:53 AM 53.1 °F 46.9 °F 80% 30.00 in 10.0 mi ESE 4.6 mph - N/A   Clear
9:53 AM 60.1 °F 48.0 °F 64% 29.99 in 10.0 mi South 9.2 mph - N/A   Clear
10:53 AM 64.0 °F 46.9 °F 54% 29.98 in 10.0 mi South 6.9 mph - N/A   Clear
11:53 AM 68.0 °F 44.1 °F 42% 29.96 in 10.0 mi SSW 10.4 mph - N/A   Mostly Cloudy
12:53 PM 71.1 °F 46.0 °F 41% 29.94 in 10.0 mi SSW 12.7 mph 24.2 mph N/A   Mostly Cloudy
1:53 PM 72.0 °F 46.0 °F 40% 29.92 in 10.0 mi SW 10.4 mph 19.6 mph N/A   Mostly Cloudy
2:53 PM 75.0 °F 45.0 °F 34% 29.90 in 7.0 mi South 18.4 mph 31.1 mph N/A   Scattered Clouds
3:03 PM 73.4 °F 44.6 °F 36% 29.91 in 8.0 mi SSW 19.6 mph 31.1 mph N/A   Mostly Cloudy
3:53 PM 72.0 °F 45.0 °F 38% 29.89 in 10.0 mi SSW 13.8 mph - N/A   Overcast
4:53 PM 72.0 °F 46.0 °F 40% 29.89 in 10.0 mi SW 8.1 mph - N/A   Overcast
5:53 PM 73.0 °F 46.0 °F 38% 29.89 in 10.0 mi SW 6.9 mph - N/A   Overcast
6:53 PM 73.0 °F 46.0 °F 38% 29.90 in 10.0 mi SW 13.8 mph 20.7 mph N/A   Scattered Clouds
7:53 PM 71.1 °F 46.9 °F 42% 29.91 in 10.0 mi SW 11.5 mph 20.7 mph N/A   Clear
8:53 PM 69.1 °F 48.0 °F 47% 29.93 in 10.0 mi SW 10.4 mph 20.7 mph N/A   Clear
9:53 PM 66.9 °F 48.9 °F 52% 29.96 in 10.0 mi WSW 6.9 mph - N/A   Clear
10:53 PM 66.0 °F 48.9 °F 54% 29.97 in 10.0 mi WSW 4.6 mph - N/A   Clear
11:53 PM 63.0 °F 48.9 °F 60% 29.99 in 10.0 mi WSW 3.5 mph - N/A   Clear